Location: Oak Glen
(34.0495°N, 116.9470°E)
Time: 06:03:09
(UTC-07:00)

Tiangong 1 - Pass Details

Date: 16 October 2017
Orbit: 294 x 320 km, 42.8° (Epoch: 18 October)

Event Time Altitude Azimuth Distance (km) Brightness Sun altitude
Rises 03:49:00 0° 299° (WNW) 2,033 5.8 -15.6°
Reaches altitude 10° 03:50:59 10° 301° (WNW) 1,198 4.5 -16.0°
Maximum altitude 03:53:40 80° 28° (NNE) 316 0.5 -16.6°
Enters shadow 03:53:50 74° 79° (E) 323 0.4 -16.6°
